STARLINK-1366, 45569

Orbit data source: Space-Track

STARLINK-1366, 45569 is a payload satellite owned by SpaceX/Seattle (US) in LEO that was launched on Wed, 22 Apr 2020 UTC via an FALCON 9 launch vehicle from the Air Force Eastern Test Range (AFETR). Payload-class satellites include a variety of spacecraft equipped with specific instruments for various scientific and technological missions. These include communications satellites like Starlink; space stations such as the ISS; scientific satellites like the Hubble; Earth observation satellites from companies like Planet Labs, Umbra, and HawkEye 360; GPS; miniature CubeSats for education and research; and military/defense satellites.

Loading next visibility...
Identifier
45569, 2020-025AQ
Orbit
LEO
Country
Flag of USUS
Related business
Manufacturer
SpaceX/Seattle
Mission
Operational Commercial Communications
Bus & Motor
STARLINK, Unknown motor
Mass
260 kg wet, ~248 kg dry
Launch date (UTC)
2020-04-22 (5 years ago)
Launch vehicle
FALCON 9
Launch site
Air Force Eastern Test Range (AFETR)
Object type
Payload
Rocket body
Debris
Shape & HBR
Box + 1 Pan, 4.4 m
Radar Cross Section
13.562 m², Large (>1 m²)

Expand to show TLE details & history
Last TLE update: 16 hours ago

TLE from 16 hours ago
0 STARLINK-1366
1 45569U 20025AQ  25259.40240645  .00000674  00000-0  64146-4 0  9998
2 45569  53.0550 149.0220 0001272  87.1089 273.0045 15.06399949299097
Epoch: 2025-09-16T09:39Z
TLE epoch observation values (Epoch: 2025-09-16T09:39:27.917Z)
Latitude
-0.00006°
Longitude
8.56242°
Altitude
548.045 km
Speed
7.589 km/s
True Right ascension
09h 56m 05s
True Declination
0° 00' 00"
Sunlit
Object was in daylight at epoch
Visualization orbit readout
Latitude
Unknown
Longitude
Unknown
Altitude
Unknown
Speed
Unknown
Apparent Right ascension
Unknown
Apparent Declination
Unknown
Sunlit
N/A
Visualization observer readout
Local Sidereal Time
18:47:43
Azimuth
Unknown
Elevation
Unknown
Doppler factor
Unknown
Orbital elements
Apogee altitude
548.363 km
Perigee altitude
546.601 km
Semi-major axis
6,925.619 km
Eccentricity
0.00013
Inclination
53.055°
RAAN
149.022°
Arg. of periapsis
87.1089°
True anomaly
272.98994°
Mean anomaly
273.0045°
Eccentric anomaly
272.99722°
Mean motion
3.76578 °/min
Orbital period
95.6 mins
BSTAR
0.000064146
Loading maneuver chart data...
Computing Atmospheric mass density...

Documentation

Showing up to 5 results
|